Location: Celcikli
(36.4852°N, 30.5218°E)
Time: 11:54:55
(UTC+00:00)

Daily predictions for brighter satellites

Satellite Brightness Start Highest point End
(mag) Time Altitude Azimuth Time Altitude Azimuth Time Altitude Azimuth
Centaur D AC-29 3.9 16:55:05 10° WSW 17:00:33 40° S 17:27:48 10° ESE
ATLAS 3B R/B 3.8 17:31:32 10° SSE 17:36:36 22° ESE 17:41:55 10° ENE
Cosmos 2181 Rocket 4.1 17:30:54 10° N 17:37:08 87° E 17:43:26 10° S
Cosmos 2150 Rocket 4.5 17:37:16 10° S 17:42:20 43° ESE 17:47:28 10° NNE
Okean 2 Rocket 4.2 17:38:05 10° NNW 17:42:23 48° W 17:46:38 10° SSW
IKONOS-2 4.4 17:38:27 10° NNE 17:42:40 75° ESE 17:46:50 10° S
Cosmos 44 4.1 17:38:08 10° SW 17:43:23 61° WNW 17:48:28 10° NNE
CSL-04 Rocket 3.8 17:41:39 10° SSE 17:47:03 62° ENE 17:52:31 10° N
Okean O Rocket 2.0 17:43:54 10° SE 17:47:59 44° ENE 17:52:05 10° N
Cosmos 1943 Rocket 3.5 17:47:05 10° SE 17:50:57 19° E 17:54:48 10° ENE
Cosmos 2278 Rocket 2.9 17:46:24 10° SSE 17:51:21 32° ESE 17:56:19 10° NE
KM-V1 4.4 17:52:11 10° SW 17:53:58 20° S 17:55:07 14° SE
Resurs 01 Rocket 1.6 17:51:36 10° SSE 17:55:59 88° ENE 18:00:24 10° NNW
Cosmos 2184 Rocket 4.2 17:51:20 10° S 17:57:39 79° W 18:03:58 10° N
Cosmos 1869 4.5 17:54:38 10° NNE 17:57:50 24° ENE 18:00:28 13° SE
Cosmos 1025 Rocket 4.0 17:55:38 10° SSW 17:59:43 49° W 18:03:51 10° N
Terra 3.6 18:03:12 11° E 18:05:48 16° ENE 18:08:35 10° NNE
CARTOSAT-1 3.8 18:04:00 10° S 18:08:13 68° W 18:12:28 10° NNW
Feng Yun 1-1 Rocket 4.3 18:02:59 10° S 18:08:25 78° WSW 18:13:49 10° NNW
CSL-04 Debris 4.4 18:06:11 10° S 18:11:31 74° WSW 18:16:54 10° NNW
NOSS 3-1 (C) 3.1 18:09:43 10° SW 18:14:22 75° NW 18:19:47 10° NNE
Cosmos 1610 Rocket 4.5 18:08:09 10° S 18:14:23 88° E 18:20:35 10° N
SPOT 5 3.6 18:11:13 15° SE 18:15:03 41° ENE 18:19:56 10° N
SL-8 R/B 3.6 18:17:21 10° SW 18:22:06 70° SE 18:26:53 10° ENE
Cosmos 2341 Rocket 4.3 18:16:26 10° SSE 18:22:25 49° E 18:28:29 10° NNE
USA 186 4.1 18:21:18 10° SSW 18:23:41 21° W 18:26:03 10° NW
Cosmos 2228 4.0 18:20:17 10° NNE 18:23:54 28° ENE 18:25:33 21° ESE
USA 276 3.9 18:22:33 10° W 18:24:51 21° SW 18:26:26 14° S
USA 290 2.5 18:23:04 16° S 18:25:16 43° ESE 18:28:17 10° NNE
CZ-4C R/B 3.3 18:23:56 10° NNE 18:27:14 42° E 18:28:57 23° SSE
Okean-O 2.6 18:24:42 17° SSE 18:28:02 68° ENE 18:32:24 10° N
PSLV R/B 3.9 18:26:55 13° S 18:30:02 64° W 18:33:38 10° NNW
Cosmos 1455 Rocket 3.7 18:26:22 10° NNW 18:30:37 54° W 18:34:49 10° S
Cosmos 1975 Rocket 4.1 18:27:11 10° SSW 18:31:29 48° W 18:35:49 10° N
Cosmos 1437 Rocket 2.4 18:33:26 13° S 18:36:32 81° E 18:40:11 10° N
Meteor 2-1 Rocket 4.2 18:33:49 10° N 18:39:22 80° W 18:44:08 14° S
IRS-1A Rocket 4.5 18:39:12 23° SE 18:42:42 57° ENE 18:48:23 10° N
ISS -1.2 18:43:42 10° N 18:45:32 14° NNE 18:47:17 10° ENE
OAO 3 Rocket 3.0 18:41:21 10° WSW 18:45:55 66° S 18:48:20 27° E
MetOp-B 4.1 18:44:26 22° SSE 18:47:58 81° ENE 18:53:20 10° N
H-2A R/B 1.5 18:48:30 10° WSW 18:52:29 39° S 18:52:39 39° S
Cosmos 2366 rocket 3.9 18:50:03 15° S 18:55:10 74° E 19:01:18 10° N
NOSS 3-1 (A) 3.0 18:52:18 10° SW 18:57:00 78° WNW 19:02:28 10° NNE
CZ-4C R/B 4.4 18:53:42 10° N 18:59:33 25° NE 19:04:50 14° E
Orbus 7S? 3.7 18:57:21 10° WNW 18:59:51 36° SW 19:00:16 34° SSW
SL-8 Rocket 4.0 18:53:38 10° S 18:59:55 87° W 19:06:16 10° N
Cosmos 1606 3.7 18:57:01 10° NNW 19:00:18 38° W 19:02:11 21° SSW
DELTA 2 R/B (1) 4.1 18:57:20 10° SSW 19:02:11 35° SSE 19:02:11 35° SSE
Cosmos 1959 Rocket 4.4 18:57:57 18° S 19:02:51 78° E 19:09:08 10° N
Cosmos 1536 Rocket 3.4 19:00:50 28° S 19:03:02 89° WNW 19:07:22 10° N
Cosmos 1833 Rocket 3.1 18:58:23 10° NNW 19:03:55 59° WSW 19:07:10 25° S
ULPM Upper Stage 3.6 19:07:34 10° NNW 19:11:36 36° NE 19:12:21 33° ENE
ERS-1 Rocket 2.9 19:09:42 38° SSE 19:11:41 90° ENE 19:16:42 10° NNW
Cosmos 614 Rocket 4.2 19:13:51 10° NNW 19:18:50 63° WSW 19:20:42 37° S
Gblst 52 Del rocket 4.1 19:13:13 10° SW 19:19:19 89° SSE 19:24:54 10° NE
Okean O Rocket 4.2 19:22:17 10° WSW 19:24:26 14° W 19:26:36 10° WNW
ATLAS 3B R/B 3.1 19:19:36 10° SW 19:26:33 67° NW 19:34:04 10° NNE
USA 229 DEB 3.5 19:25:43 45° SSE 19:26:51 51° ESE 19:33:02 10° NE
USA 229 3.5 19:25:56 46° SSE 19:26:57 51° ESE 19:33:08 10° NE
Cosmos 2084 Rocket 3.2 19:25:58 10° NNW 19:29:42 80° NW 19:29:42 80° NW
Cosmos 2369 Rocket 3.7 19:33:26 20° ENE 19:33:26 20° ENE 19:35:58 10° NE
Cosmos 1943 Rocket 3.0 19:28:44 10° SW 19:34:12 51° WNW 19:39:41 10° N
Cosmos 2082 Rocket 2.2 19:29:21 10° NNW 19:34:57 66° ENE 19:35:56 55° ESE
Cosmos 2278 Rocket 3.9 19:30:21 10° WSW 19:35:20 31° WNW 19:40:20 10° N
Spot 2 Rocket 3.5 19:34:19 52° S 19:35:33 75° WSW 19:40:40 10° NNW
SL-08 R/B 4.4 19:37:58 53° SE 19:39:02 61° E 19:45:03 10° NNE
OAO 1 4.4 19:36:06 10° W 19:41:35 67° S 19:41:51 66° S
Terra 2.4 19:41:54 41° SW 19:42:57 49° W 19:47:31 10° NNW
USA 215 3.5 19:41:25 40° ESE 19:43:48 63° NE 19:50:16 10° NW
Cosmos 1934 Rocket 4.5 19:44:13 40° E 19:44:20 40° E 19:50:03 10° NNE
SPOT 3 Rocket 3.7 19:47:49 57° SSW 19:48:42 69° WSW 19:53:55 10° NNW
USA 305 4.3 19:47:26 10° NNW 19:49:32 26° N 19:49:32 26° N
Milstar 3 3.6 19:48:56 10° WSW 19:56:03 48° SSE 20:07:52 10° E
Meteor 2-13 Rocket 4.5 19:50:04 10° N 19:56:13 74° W 19:57:40 53° SSW
ARIANE 5 R/B 4.4 20:02:02 23° NE 20:02:02 23° NE 20:04:39 10° NNE
Cosmos 1892 Rocket 3.9 20:02:25 64° NNW 20:02:25 64° NNW 20:06:20 10° N
Ariane Rocket 3.7 20:02:57 41° WSW 20:03:39 43° W 20:08:29 10° NNW
Lacrosse 5 rocket 2.9 20:11:40 29° NNW 20:11:40 29° NNW 20:14:17 10° NNE
Cosmos 1812 4.5 20:08:23 10° NNW 20:10:11 28° NNW 20:10:11 28° NNW
Alouette 2 Rocket 4.1 20:15:26 67° N 20:15:26 67° N 20:20:39 10° N
Cosmos 1932 4.3 20:09:17 10° NNW 20:15:28 75° WSW 20:15:50 72° SSW
Cosmos 2058 4.2 20:19:35 38° NNW 20:19:35 38° NNW 20:22:16 10° N
Cosmos 1656 Rocket 3.6 20:20:31 79° NNW 20:20:31 79° NNW 20:25:46 10° NNE
ISS -0.8 20:19:21 10° NW 20:20:09 16° NW 20:20:09 16° NW
Cosmos 1727 Rocket 4.5 20:17:02 10° NNW 20:23:06 52° W 20:24:16 46° SW
COSMOS 2406 3.6 20:23:03 10° NNW 20:28:24 55° W 20:28:24 55° W
Cosmos 1535 Rocket 4.5 20:32:47 68° ENE 20:32:47 68° ENE 20:38:26 10° N
Cosmos 1605 Rocket 4.1 20:38:00 60° ENE 20:38:00 60° ENE 20:43:22 10° NNE
Cosmos 407 Rocket 4.0 20:39:24 10° NNW 20:43:32 57° NNW 20:43:32 57° NNW
COSMOS 2455 4.2 20:40:16 10° N 20:45:26 29° NE 20:45:56 28° ENE
CZ-4C R/B 3.0 20:41:05 10° NNW 20:48:48 86° WSW 20:49:53 72° SSE
Cosmos 1140 Rocket 4.5 20:43:59 10° NNW 20:47:52 41° WNW 20:47:52 41° WNW
Meteor 2-3 Rocket 4.3 21:14:42 52° NW 21:14:42 52° NW 21:19:26 10° N
Gbstr 26 Del rocket 4.4 21:09:42 10° NW 21:13:13 47° NW 21:13:13 47° NW
Cosmos 2369 Rocket 3.2 21:15:09 39° WNW 21:15:15 39° WNW 21:20:30 10° N
Lacrosse 5 4.3 21:13:05 10° N 21:16:16 16° NNE 21:18:05 14° NE
Cosmos 2082 Rocket 4.4 21:15:31 10° WNW 21:17:46 14° W 21:17:46 14° W
USA 215 4.5 21:28:46 28° W 21:28:46 28° W 21:32:44 10° WNW
Lacrosse 4 Rocket 4.0 21:28:41 18° NNW 21:28:41 18° NNW 21:30:33 10° N
SeaSat 1 4.0 21:31:24 30° NNE 21:31:24 30° NNE 21:34:46 10° N
ATLAS CENTAUR R/B 4.4 21:38:21 24° ENE 21:38:21 24° ENE 21:41:38 10° NE
Cosmos 1459 Rocket 4.3 22:06:07 62° NNW 22:06:07 62° NNW 22:11:23 10° N
Cosmos 2016 Rocket 4.4 22:10:22 60° NNE 22:10:22 60° NNE 22:15:33 10° N
CENTAUR R/B 3.2 22:06:35 10° NNW 22:15:18 89° WSW 22:16:06 78° SSE
H-2A R/B 4.4 22:19:06 10° N 22:20:29 21° N 22:20:29 21° N
Cosmos 1725 Rocket 4.3 22:25:30 64° N 22:25:30 64° N 22:30:45 10° N
USA 281 3.3 22:31:51 73° NNW 22:31:51 73° NNW 22:37:44 10° NNW
COSMOS 2455 4.2 22:25:49 10° NW 22:29:02 29° WNW 22:29:02 29° WNW
Milstar 3 4.2 22:30:40 10° W 22:40:43 57° S 23:00:32 10° ESE
SJ 16-02 3.5 22:53:08 10° NNW 22:54:45 22° NNW 22:54:45 22° NNW
Lacrosse 5 3.5 22:54:54 10° NW 22:57:14 27° NW 22:57:14 27° NW
Cosmos 1697 Rocket 3.5 23:05:21 45° ENE 23:05:21 45° ENE 23:09:36 10° NNE
Cosmos 1867 4.5 23:02:38 10° NNW 23:07:52 44° NE 23:08:05 44° ENE
NOSS 3-2 (A) 4.2 23:02:59 10° NW 23:10:30 62° WSW 23:10:30 62° WSW
Cosmos 2227 Rocket 3.9 23:06:54 10° N 23:11:43 28° ENE 23:14:07 21° E
Cosmos 2344 4.1 23:22:54 39° W 23:24:37 45° NW 23:31:34 10° NNE
Cosmos 2297 Rocket 2.4 23:21:02 10° NNW 23:26:06 68° NNE 23:26:06 68° NNE
IDEFIX/ARIANE 42P 3.1 23:24:23 10° NNE 23:28:43 55° ENE 23:28:43 55° ENE
ATLAS CENTAUR R/B 4.1 23:28:31 30° WNW 23:30:12 35° NNW 23:37:45 10° NNE
Cosmos 1513 Rocket 4.4 23:30:27 87° ENE 23:30:27 87° ENE 23:36:45 10° N
CZ-2C R/B 3.5 23:29:53 41° E 23:30:52 45° ENE 23:36:11 10° N
ADEOS II 3.5 23:28:31 10° NE 23:32:59 28° E 23:33:13 28° E
CZ-2D R/B 2.9 23:28:27 10° NNE 23:33:08 42° E 23:33:08 42° E
NOSS 3-4 (C) 3.4 23:38:13 63° NNW 23:38:13 63° NNW 23:43:37 10° NNE
NOSS 3-4 (A) 3.4 23:38:45 61° NNW 23:38:45 61° NNW 23:44:03 10° NNE
Atlas Centaur 2 3.4 23:40:52 44° SE 23:40:52 44° SE 23:47:38 10° E
Cosmos 1980 Rocket 2.7 23:40:15 49° ESE 23:40:15 49° ESE 23:45:37 10° NNE
USA 234 3.1 23:38:10 10° NE 23:44:43 73° SE 23:45:14 69° SSE
MSX 3.7 23:41:32 10° NNE 23:47:20 79° ESE 23:47:26 79° ESE
Cosmos 371 Rocket 3.8 23:43:17 10° N 23:47:49 56° NE 23:47:49 56° NE
Resurs 1-4 Rocket 2.3 23:42:51 10° NNE 23:48:01 65° E 23:48:01 65° E
NOSS 3-2 (C) 4.1 23:40:44 10° NW 23:48:38 71° WSW 23:50:51 53° S
Meteor 2-4 Rocket 3.9 23:46:22 10° NNW 23:50:57 57° NW 23:50:57 57° NW
